KB8VUC Weather Reports


time (UTC)temp
C
wind
direction
speed
KPH
gust
KPH
rain 1hr
cm
rain 24hr
cm
rain mn
cm
humidity
%
barometer
mb
20260906124655 16 44 0.0 4.8 0.00 0.03 0.00 88 1015.0
20260906123037 15 349 0.0 4.8 0.00 0.03 0.00 91 1014.8
20260906121540 14 40 1.6 6.4 0.00 0.03 0.00 92 1014.6
20260906120014 13 31 0.0 4.8 0.00 0.03 0.00 93 1014.3
20260906114515 13 28 0.0 4.8 0.00 0.03 0.00 94 1014.2
20260906113056 12 9 1.6 4.8 0.00 0.03 0.00 94 1014.2
20260906111555 12 5 3.2 8.0 0.00 0.03 0.00 94 1014.0
20260906110036 12 26 0.0 4.8 0.00 0.03 0.00 93 1014.0
20260906104533 12 350 0.0 4.8 0.00 0.03 0.00 92 1013.9
20260906103015 12 336 1.6 4.8 0.00 0.03 0.00 92 1013.9
20260906101514 12 355 1.6 3.2 0.00 0.03 0.00 92 1013.9
20260906100114 12 14 0.0 3.2 0.00 0.03 0.00 92 1013.6
20260906094552 13 346 0.0 4.8 0.00 0.03 0.00 90 1013.6
20260906093051 13 346 1.6 4.8 0.00 0.03 0.00 87 1013.8
20260906091531 14 12 1.6 8.0 0.00 0.03 0.00 86 1013.6
20260906090027 15 43 6.4 11.3 0.00 0.03 0.00 85 1013.2
20260906084528 15 63 4.8 11.3 0.00 0.03 0.00 85 1013.2
20260906083025 15 57 3.2 9.7 0.00 0.03 0.00 84 1013.1
20260906081532 15 45 4.8 12.9 0.00 0.03 0.00 83 1013.1
20260906080019 15 43 4.8 14.5 0.00 0.03 0.00 82 1013.1
20260906074518 15 22 4.8 9.7 0.00 0.03 0.00 82 1013.0
20260906073017 15 40 4.8 12.9 0.00 0.03 0.00 82 1012.7
20260906071609 15 43 4.8 9.7 0.00 0.03 0.00 81 1012.9
20260906071500 15 40 3.2 9.7 0.00 0.03 0.00 81 1012.9
20260906070057 16 71 4.8 11.3 0.00 0.03 0.00 81 1013.0
20260906064541 16 48 4.8 9.7 0.00 0.03 0.00 81 1013.0
20260906063038 16 40 4.8 14.5 0.00 0.03 0.00 83 1013.0
20260906061523 16 32 4.8 11.3 0.00 0.03 0.00 83 1013.0
20260906060022 16 36 4.8 9.7 0.00 0.03 0.00 83 1012.9
20260906054519 16 40 4.8 11.3 0.00 0.03 0.00 82 1012.8
20260906053023 16 37 6.4 11.3 0.00 0.03 0.00 80 1012.7
20260906051513 17 64 4.8 12.9 0.00 0.03 0.00 79 1012.6
20260906050031 17 33 4.8 12.9 0.00 0.03 0.00 78 1012.6
20260906044507 17 57 6.4 12.9 0.00 0.03 0.00 78 1012.4
20260906043008 17 78 4.8 12.9 0.00 0.03 0.00 78 1012.3
20260906041544 18 59 6.4 14.5 0.00 0.03 0.00 77 1012.1
20260906040046 18 128 4.8 17.7 0.00 0.03 0.00 77 1012.0
20260906034531 18 98 6.4 17.7 0.00 0.03 0.03 78 1012.0
20260906033025 18 71 8.0 14.5 0.00 0.03 0.03 81 1012.0
20260906031601 19 36 6.4 11.3 0.00 0.03 0.03 82 1012.0
20260906030127 19 41 6.4 12.9 0.00 0.03 0.03 80 1011.8
20260906024544 20 69 6.4 14.5 0.00 0.03 0.03 80 1011.6
20260906023044 20 33 4.8 12.9 0.00 0.03 0.03 79 1011.4
20260906021555 20 51 4.8 11.3 0.00 0.03 0.03 78 1011.3
20260906020042 20 39 4.8 9.7 0.00 0.03 0.03 78 1011.2
20260906014541 20 32 4.8 9.7 0.00 0.03 0.03 78 1011.3
20260906013040 20 44 3.2 9.7 0.00 0.03 0.03 78 1011.2
20260906011538 21 44 4.8 9.7 0.00 0.03 0.03 78 1010.9
20260906010036 21 47 3.2 9.7 0.00 0.03 0.03 78 1010.7
20260906004516 21 30 4.8 9.7 0.00 0.03 0.03 81 1010.5
20260906003016 21 17 1.6 4.8 0.00 0.03 0.03 85 1010.4
20260906001505 21 17 0.0 4.8 0.00 0.03 0.03 84 1010.5
20260906000003 22 17 0.0 3.2 0.00 0.03 0.03 83 1010.2
20260905234502 23 17 0.0 3.2 0.00 0.03 0.03 80 1010.3
20260905233001 23 32 1.6 4.8 0.00 0.03 0.03 79 1010.2
20260905231601 23 38 1.6 4.8 0.00 0.03 0.03 78 1010.2
20260905230100 23 20 1.6 4.8 0.00 0.03 0.03 78 1010.2
20260905224606 23 36 3.2 8.0 0.00 0.03 0.03 78 1010.0
20260905223057 23 31 1.6 8.0 0.00 0.03 0.03 79 1010.0
20260905221540 23 46 4.8 9.7 0.00 0.03 0.03 79 1009.7
20260905220040 23 60 4.8 12.9 0.00 0.03 0.03 80 1009.6
20260905214524 23 36 4.8 12.9 0.00 0.03 0.03 82 1009.7
20260905213023 23 36 1.6 9.7 0.00 0.03 0.03 84 1009.7
20260905211520 23 32 3.2 8.0 0.00 0.03 0.03 85 1009.6
20260905210016 22 63 4.8 8.0 0.00 0.03 0.03 86 1009.5
20260905204513 22 66 3.2 9.7 0.00 0.03 0.03 88 1009.7
20260905203011 22 48 0.0 4.8 0.00 0.03 0.03 93 1009.9
20260905201507 21 51 0.0 4.8 0.03 0.03 0.03 93 1009.9
20260905200008 21 37 1.6 6.4 0.03 0.03 0.03 93 1010.0
20260905194552 21 37 1.6 8.0 0.03 0.03 0.03 94 1010.0
20260905193046 20 32 4.8 12.9 0.03 0.03 0.03 93 1010.2
20260905191529 20 355 8.0 17.7 0.00 0.00 0.00 92 1010.1
20260905190028 21 30 6.4 19.3 0.00 0.00 0.00 90 1010.2
20260905184515 21 360 4.8 16.1 0.00 0.00 0.00 89 1010.3
20260905183012 21 34 4.8 9.7 0.00 0.00 0.00 89 1010.4
20260905181651 20 63 4.8 11.3 0.00 0.00 0.00 90 1010.3
20260905180052 20 39 6.4 12.9 0.00 0.00 0.00 89 1010.3
20260905174540 20 23 3.2 9.7 0.00 0.00 0.00 89 1010.2
20260905173032 20 57 4.8 16.1 0.00 0.00 0.00 89 1010.3
20260905171521 20 59 6.4 14.5 0.00 0.00 0.00 90 1010.3
20260905170021 20 40 4.8 11.3 0.00 0.00 0.00 91 1010.3
20260905164521 20 27 4.8 14.5 0.00 0.08 0.00 90 1010.3
20260905163020 20 28 4.8 17.7 0.00 0.08 0.00 90 1010.4
20260905161518 20 22 6.4 12.9 0.00 0.08 0.00 90 1010.2
20260905160031 21 48 6.4 12.9 0.00 0.08 0.00 89 1010.1
20260905154516 20 36 6.4 12.9 0.00 0.15 0.00 89 1010.1
20260905153015 20 53 6.4 14.5 0.00 0.15 0.00 90 1010.0
20260905151558 20 61 8.0 14.5 0.00 0.15 0.00 91 1009.9
20260905150056 20 44 9.7 17.7 0.00 0.15 0.00 91 1009.9
20260905144555 20 55 6.4 11.3 0.00 0.28 0.00 92 1009.8
20260905143054 19 5 8.0 14.5 0.00 0.28 0.00 93 1009.6
20260905141610 19 72 6.4 11.3 0.00 0.28 0.00 93 1009.6
20260905140100 19 53 6.4 16.1 0.00 0.28 0.00 93 1009.6
20260905134653 19 69 4.8 12.9 0.00 0.71 0.00 93 1009.6
20260905133055 19 41 3.2 9.7 0.00 0.71 0.00 94 1009.4
20260905131547 19 40 9.7 17.7 0.00 0.71 0.00 94 1009.3
20260905130028 19 28 4.8 12.9 0.00 0.71 0.00 95 1009.3